Location: Brookfield Village
(37.7352°N, 122.1861°W)
Time: 17:02:33
(UTC+00:00)

Cosmos 2208 Rocket - Pass Details

Date: 03 August 2024
Orbit: 751 x 803 km, 74.0° (Epoch: 06 September)

Event Time Altitude Azimuth Distance (km) Brightness Sun altitude
Exits shadow 12:17:42 12° 214° (SW) 2,156 5.8 -10.8°
Maximum altitude 12:22:25 54° 291° (WNW) 910 4.2 -10.0°
Drops below altitude 10° 12:27:28 10° 9° (N) 2,281 7.0 -9.2°
Sets 12:29:54 0° 14° (NNE) 3,212 7.9 -8.8°
